Topeka Forbes, KS

6:18 PM CDT on May 26, 2017 (GMT -0500)
Forbes

Weather History for KFOE - November, 2012

Change the Weather History Date:

Friday, November 2, 2012

  Actual Average Record
Temperature  
Mean Temperature 55 °F -  
Max Temperature 66 °F 56 °F 82 °F (1964)
Min Temperature 44 °F 38 °F 14 °F (1966)
Degree Days  
Heating Degree Days 10    
Growing Degree Days 5 (Base 50)    
Moisture  
Dew Point 39 °F    
Average Humidity 60    
Maximum Humidity 82    
Minimum Humidity 44    
Precipitation  
Precipitation 0.00 in - - ()
Sea Level Pressure  
Sea Level Pressure 29.91 in    
Wind  
Wind Speed 7 mph (East)    
Max Wind Speed 16 mph    
Max Gust Speed 25 mph    
Visibility 10 miles    
Events      
Averages and records for this station are not official NWS values.
T = Trace of Precipitation, MM = Missing Value Source: NWS Daily Summary

Daily Weather History Graph

Daily Weather History Graph

Search for Another Location

Airport or City:

Trip Planner

Search our weather history database for the weather conditions in past years. The results will help you decide how hot, cold, wet, or windy it might be!

Date:

Astronomy

Nov. 02, 2012 Rise Set
Actual Time 7:51 AM CDT 6:20 PM CDT
Civil Twilight 7:23 AM CDT 6:48 PM CDT
Nautical Twilight 6:52 AM CDT 7:19 PM CDT
Astronomical Twilight 6:21 AM CDT 7:50 PM CDT
Moon 9:09 PM CDT (11/2) 11:11 AM CDT (11/2)
Length of Visible Light 11h 24m
Length of Day
10h 28m
Waning Gibbous, 87% of the Moon is Illuminated
Nov 2
Waning Gibbous
Nov 6
Last Quarter
Nov 13
New
Nov 20
First Quarter
Nov 28
Full

Hourly Weather History & Observations

Time (CDT) Temp. Windchill Dew Point Humidity Pressure Visibility Wind Dir Wind Speed Gust Speed Precip Events Conditions
12:53 AM 46.0 °F - 39.0 °F 76% 29.96 in 10.0 mi Calm Calm - N/A   Clear
1:53 AM 48.9 °F - 39.9 °F 71% 29.93 in 10.0 mi East 5.8 mph - N/A   Clear
2:53 AM 48.0 °F - 39.9 °F 74% 29.94 in 10.0 mi East 4.6 mph - N/A   Clear
3:53 AM 44.1 °F - 37.9 °F 79% 29.94 in 10.0 mi Calm Calm - N/A   Clear
4:53 AM 44.1 °F 40.8 °F 39.0 °F 82% 29.94 in 10.0 mi East 5.8 mph - N/A   Clear
5:53 AM 45.0 °F 40.6 °F 39.9 °F 82% 29.94 in 10.0 mi East 8.1 mph - N/A   Clear
6:53 AM 45.0 °F 39.3 °F 37.9 °F 76% 29.93 in 10.0 mi East 11.5 mph - N/A   Clear
7:53 AM 44.1 °F 38.1 °F 37.0 °F 76% 29.93 in 10.0 mi East 11.5 mph - N/A   Clear
8:53 AM 45.0 °F 40.1 °F 37.0 °F 74% 29.95 in 10.0 mi ESE 9.2 mph - N/A   Clear
9:53 AM 48.9 °F - 37.0 °F 64% 29.94 in 10.0 mi ESE 15.0 mph 23.0 mph N/A   Clear
10:53 AM 53.1 °F - 37.0 °F 55% 29.92 in 10.0 mi ESE 12.7 mph 25.3 mph N/A   Clear
11:53 AM 57.9 °F - 39.0 °F 49% 29.90 in 10.0 mi ESE 16.1 mph 24.2 mph N/A   Clear
12:53 PM 62.1 °F - 39.9 °F 44% 29.86 in 10.0 mi ESE 13.8 mph 23.0 mph N/A   Clear
1:53 PM 64.0 °F - 42.1 °F 45% 29.84 in 10.0 mi SE 13.8 mph 20.7 mph N/A   Clear
2:53 PM 66.0 °F - 44.1 °F 45% 29.81 in 10.0 mi ESE 13.8 mph 21.9 mph N/A   Clear
3:53 PM 66.0 °F - 44.1 °F 45% 29.84 in 10.0 mi ESE 10.4 mph - N/A   Clear
4:53 PM 64.9 °F - 45.0 °F 48% 29.84 in 10.0 mi ESE 6.9 mph - N/A   Clear
5:53 PM 62.1 °F - 43.0 °F 50% 29.84 in 10.0 mi East 9.2 mph - N/A   Clear
6:53 PM 59.0 °F - 42.1 °F 53% 29.88 in 10.0 mi NE 5.8 mph - N/A   Clear
7:53 PM 57.0 °F - 37.9 °F 49% 29.90 in 10.0 mi NE 10.4 mph - N/A   Clear
8:53 PM 54.0 °F - 35.1 °F 49% 29.91 in 10.0 mi ENE 9.2 mph - N/A   Clear
9:53 PM 52.0 °F - 34.0 °F 50% 29.93 in 10.0 mi North 5.8 mph - N/A   Clear
10:53 PM 48.9 °F - 34.0 °F 56% 29.95 in 10.0 mi NNW 8.1 mph - N/A   Clear
11:53 PM 48.0 °F - 33.1 °F 56% 29.96 in 10.0 mi North 10.4 mph - N/A   Clear